Estación Meteorológica Peña el Pijo (Robertgarden) [ 07/15/20 06:23:53 CEST ]

Fecha Hora Presion(HPa) Temp (°C) Humedad % Rocio (°C) Viento ( m/s) Direccion Lluvia 1Hora(mm) Lluvia 24H(mm) LLuvia Total(mm)
2020-Feb-07 01:09:33 1012.600 - - - - N     39.88
2020-Feb-07 02:09:41 1012.100 - - - - N     39.88
2020-Feb-07 03:09:43 1011.500 - - - - N     39.88
2020-Feb-07 04:10:24 1011.400 - - - - N     39.88
2020-Feb-07 05:10:35 1010.900 - - - - N     39.88
2020-Feb-07 06:10:28 1011.000 - - - - N     39.88
2020-Feb-07 07:09:05 1011.100 - - - - N     39.88
2020-Feb-07 08:09:25 1011.300 - - - - N     39.88
2020-Feb-07 09:09:13 1011.500 - - - - N     39.88
2020-Feb-07 10:08:42 1011.900 - - - - N     39.88
2020-Feb-07 11:08:57 1012.000 - - - - N     39.88
2020-Feb-07 12:09:06 1011.800 - - - - N     39.88
2020-Feb-07 13:09:11 1011.100 - - - - N     39.88
2020-Feb-07 14:09:09 1010.400 - - - - N     39.88
2020-Feb-07 15:09:16 1010.000 - - - - N     39.88
2020-Feb-07 16:09:02 1010.200 - - - - N     39.88
2020-Feb-07 17:09:30 1010.500 - - - - N     39.88
2020-Feb-07 18:09:16 1011.000 - - - - N     39.88
2020-Feb-07 19:09:10 1011.800 - - - - N     39.88
2020-Feb-07 20:09:17 1012.300 - - - - N     39.88
2020-Feb-07 21:08:38 1012.500 - - - - N     39.88
2020-Feb-07 22:09:25 1012.900 - - - - N     39.88
2020-Feb-07 23:09:37 1012.900 - - - - N     39.88

Temperatura Máxima:    Temperatura Mínima:
Presión Máxima:1012.900 Hpa    Presión Mínima:1010.000 Hpa


Volver